| time (UTC) | temp F | wind direction | speed MPH | gust MPH | rain 1hr in | rain 24hr in | rain mn in | humidity % | barometer mb |
| 20260507162121 | 57 | 290 | 14.0 | 0.0 | 0.00 | 0.00 | 0.00 | 58 | |
| 20260507151817 | 59 | 280 | 9.0 | 0.0 | 0.00 | 0.00 | 0.00 | 58 | |
| 20260507141821 | 59 | 280 | 9.0 | 0.0 | 0.00 | 0.00 | 0.00 | 54 | |
| 20260507131921 | 59 | 230 | 7.0 | 0.0 | 0.00 | 0.00 | 0.00 | 54 | |
| 20260507121819 | 57 | 260 | 9.0 | 0.0 | 0.00 | 0.00 | 0.00 | 62 | |
| 20260507111820 | 61 | 250 | 12.0 | 0.0 | 0.00 | 0.00 | 0.00 | 59 | |
| 20260507102032 | 57 | 260 | 7.0 | 0.0 | 0.00 | 0.00 | 0.00 | 62 | |
| 20260507091818 | 57 | 240 | 9.0 | 0.0 | 0.00 | 0.00 | 0.00 | 62 | |
| 20260507081818 | 55 | 250 | 12.0 | 0.0 | 0.00 | 0.00 | 0.00 | 66 | |
| 20260507071820 | 55 | 230 | 14.0 | 0.0 | 0.00 | 0.00 | 0.00 | 71 | |
| 20260507061818 | 54 | 230 | 9.0 | 0.0 | 0.00 | 0.00 | 0.00 | 76 | |
| 20260507051817 | 48 | 230 | 9.0 | 0.0 | 0.00 | 0.00 | 0.00 | 93 | |
| 20260507042031 | 50 | 210 | 5.0 | 0.0 | 0.00 | 0.00 | 0.00 | 87 | |
| 20260507031819 | 48 | 220 | 5.0 | 0.0 | 0.00 | 0.00 | 0.00 | 93 | |
| 20260507021816 | 48 | 230 | 9.0 | 0.0 | 0.00 | 0.00 | 0.00 | 93 | |
| 20260507011918 | 52 | 250 | 7.0 | 0.0 | 0.00 | 0.00 | 0.00 | 87 | |
| 20260507001818 | 52 | 240 | 5.0 | 0.0 | 0.00 | 0.00 | 0.00 | 93 | |
| 20260506231819 | 52 | 230 | 7.0 | 0.0 | 0.00 | 0.00 | 0.00 | 93 | |
| 20260506222030 | 54 | 250 | 12.0 | 0.0 | 0.00 | 0.00 | 0.00 | 93 | |
| 20260506211818 | 54 | 290 | 7.0 | 0.0 | 0.00 | 0.00 | 0.00 | 93 | |
| 20260506201835 | 54 | 280 | 14.0 | 24.0 | 0.00 | 0.00 | 0.00 | 93 | |
| 20260506191922 | 59 | 280 | 7.0 | 0.0 | 0.00 | 0.00 | 0.00 | 77 | |
| 20260506181907 | 63 | 10 | 16.0 | 0.0 | 0.00 | 0.00 | 0.00 | 63 | |
| 20260506171822 | 64 | 10 | 12.0 | 0.0 | 0.00 | 0.00 | 0.00 | 55 |